ECMWFFLT1_925_spd_021.txt.gz
Wind_Speed
9 9 9 8 7 7 7 6 5 5 4 5 5 5 5 4 4 4 3 3 3 3 2 3 3 4 5 6 5 3 3 3 5 5 6 4 2 3 3 2 1 2 1 1 1 1 1 4 4 4 6 7 9 9 10 13 13 13 11 8 11 12 8
10 10 9 8 8 7 7 5 5 5 5 5 5 5 5 5 5 5 4 4 4 4 4 4 5 5 5 5 5 5 4 4 5 3 3 3 2 2 2 0 1 3 4 4 5 5 4 6 3 2 3 4 6 10 12 12 12 14 15 12 11 12 12
11 10 10 9 8 7 7 6 5 5 5 5 5 5 5 5 5 5 5 5 5 5 5 5 5 5 5 5 5 5 5 5 5 5 4 4 3 2 1 1 1 3 4 4 5 5 5 6 4 3 3 3 4 7 9 11 12 13 14 14 14 14 14
11 11 10 10 9 8 8 7 6 5 5 5 5 5 5 6 6 5 5 5 5 5 5 5 5 5 5 5 5 5 5 5 5 5 5 4 4 3 3 3 2 2 3 2 2 3 4 4 5 4 5 6 6 6 7 9 11 11 11 13 14 14 14
12 12 11 11 11 10 9 8 7 7 6 6 6 5 6 5 5 5 4 4 4 4 4 4 4 5 5 5 5 5 5 6 5 5 5 4 4 4 4 4 3 3 3 3 4 4 5 5 5 5 6 7 7 6 7 8 9 11 12 13 13 12 12
13 13 12 12 11 11 10 9 8 8 7 7 7 6 6 6 5 4 4 4 4 4 4 4 4 4 4 5 5 6 6 6 6 5 5 4 4 4 3 3 3 3 3 3 3 3 3 5 5 5 6 7 7 7 9 9 10 11 11 11 10 10 10
14 14 13 13 12 11 10 10 9 8 8 8 8 8 8 7 5 5 4 4 4 4 4 4 4 4 4 4 5 6 6 6 6 6 5 5 4 4 3 3 3 3 3 3 3 3 3 4 5 5 6 7 7 8 9 8 8 7 7 6 6 7 8
14 14 13 13 13 12 11 11 10 9 9 9 9 9 10 8 7 6 6 5 5 4 4 4 4 3 3 4 4 5 5 5 5 5 5 5 4 4 4 3 3 3 3 3 3 3 3 4 5 6 6 6 6 6 6 7 7 7 6 5 5 5 5
14 14 14 13 13 13 12 12 11 10 9 10 10 11 11 10 8 8 7 6 6 5 5 4 4 4 3 3 3 4 4 4 4 4 4 4 4 4 4 4 3 3 4 4 4 4 4 4 5 6 6 6 6 5 4 5 6 6 6 6 5 4 3
14 13 13 13 13 13 13 12 12 11 10 10 11 13 13 12 10 9 8 8 8 7 6 5 5 5 4 3 3 3 3 3 3 3 3 3 3 3 4 4 4 4 5 5 4 4 4 5 5 5 6 7 7 6 5 5 5 6 8 8 7 7 6
14 13 12 12 12 13 13 13 13 12 12 12 13 14 14 13 13 11 10 9 9 8 8 7 6 6 5 4 4 4 4 3 3 3 3 2 2 2 2 3 3 3 4 4 4 5 5 5 5 5 5 6 6 6 6 6 6 7 9 9 9 9 9
15 14 13 12 11 12 13 13 13 13 14 14 14 15 16 15 15 14 12 11 11 10 9 8 8 7 6 5 5 5 4 4 3 3 2 2 2 1 1 1 1 1 2 4 3 3 4 5 5 6 6 6 6 6 7 7 6 7 9 9 10 11 12
15 15 14 13 12 12 12 12 13 13 14 15 15 17 17 17 16 16 15 13 13 12 11 10 9 8 7 7 6 6 6 5 5 4 3 2 2 1 1 1 1 1 2 4 3 3 4 4 5 6 6 6 6 6 7 8 7 8 11 12 12 13 13
13 14 14 13 14 14 13 13 13 13 14 14 15 17 18 18 18 17 16 16 15 14 13 12 11 10 9 8 7 7 7 6 6 5 5 4 3 2 2 2 2 2 2 4 5 5 5 5 6 6 6 6 7 6 7 8 9 10 12 12 12 13 13
12 12 13 13 13 13 13 12 13 14 15 15 15 17 17 18 18 18 18 17 17 16 15 15 14 12 11 10 9 8 8 8 7 6 5 5 5 4 2 3 3 3 3 5 6 6 6 6 6 7 7 6 7 7 7 9 10 11 12 12 13 14 13
12 12 13 13 14 15 14 13 14 15 14 14 16 17 17 17 18 19 19 19 18 18 17 16 16 15 13 13 12 10 9 9 8 7 6 6 5 4 4 4 3 3 4 5 6 6 7 7 7 8 8 8 8 9 9 9 10 11 13 13 13 13 13
11 11 11 11 11 13 14 13 14 15 14 14 16 16 16 18 18 19 19 19 19 19 19 18 18 16 15 15 14 12 11 11 10 8 8 7 5 4 4 4 4 4 4 5 6 7 7 7 7 8 9 9 10 10 10 10 10 11 13 13 13 13 13
9 9 10 10 11 13 16 15 14 15 14 14 16 16 17 18 19 20 20 20 20 20 20 19 19 18 17 16 16 14 13 12 11 10 9 8 7 5 5 4 4 4 4 5 5 6 6 7 8 9 10 10 11 11 11 11 12 13 14 15 15 15 15
8 8 8 9 11 16 20 19 16 16 15 15 16 18 19 19 20 21 21 21 21 20 19 19 19 18 17 17 16 15 14 13 12 12 11 9 8 7 6 5 5 4 4 5 5 6 6 7 9 10 11 11 12 12 13 13 13 14 15 16 16 16 16
5 6 6 7 9 12 16 17 18 20 20 18 17 18 20 21 21 22 22 22 21 21 20 20 19 19 18 18 17 16 15 14 13 12 11 10 9 8 7 6 5 5 5 5 4 5 6 7 9 10 11 12 12 13 13 14 14 14 15 16 16 16 16
2 3 4 6 7 10 14 16 18 20 20 19 18 19 20 21 22 23 23 22 22 22 22 21 21 20 19 18 18 17 16 15 14 13 11 10 10 9 8 7 7 6 6 6 5 6 7 8 8 10 11 12 12 14 14 15 15 15 15 16 16 16 16
2 2 3 4 5 8 11 14 17 17 17 16 17 19 20 20 21 22 22 23 23 23 23 23 23 22 20 19 19 17 16 15 14 13 12 11 11 9 9 8 7 8 10 10 9 10 10 9 9 10 11 11 13 14 15 15 15 15 16 16 15 15 15
4 4 4 5 6 7 8 10 12 12 14 15 16 18 20 20 20 21 22 21 21 22 23 23 23 24 23 21 19 17 16 16 14 13 12 11 11 10 9 8 8 10 13 12 12 10 9 10 11 11 11 11 12 14 15 16 16 16 16 16 16 16 16
5 5 6 6 7 7 8 9 9 9 11 13 15 17 19 19 19 19 20 21 21 21 21 20 22 26 27 24 19 16 16 15 14 13 12 11 10 9 9 8 7 9 10 10 9 9 10 13 14 13 12 13 14 15 16 17 17 17 17 17 17 17 17
6 6 6 7 7 8 8 9 9 10 11 12 13 14 16 17 18 18 19 21 22 20 19 20 23 27 29 26 20 16 14 14 13 12 11 10 9 8 7 7 7 7 8 9 10 10 13 15 15 13 14 15 16 17 19 19 20 19 18 18 18 18 18
7 7 7 8 8 8 9 9 10 10 11 11 12 13 15 15 17 18 18 19 20 19 19 21 24 28 29 26 22 17 12 13 13 11 11 10 8 7 7 7 7 8 8 10 11 11 11 12 12 13 14 16 18 20 21 21 21 21 21 20 20 20 20
7 8 8 9 9 9 10 10 10 10 11 12 12 13 14 15 17 17 17 18 20 20 21 22 24 28 29 27 24 18 12 11 11 10 9 9 8 8 7 7 8 8 9 10 10 10 10 10 11 13 14 15 18 19 21 22 22 23 24 25 25 24 21
7 8 9 9 10 11 11 11 11 11 12 12 12 13 14 14 16 17 17 18 18 19 21 24 26 29 28 27 25 19 11 10 9 7 8 9 8 8 8 8 9 10 10 10 11 11 11 11 12 14 15 16 18 18 19 20 21 22 24 27 28 26 23
8 9 10 10 11 11 11 12 12 12 12 12 13 13 13 14 15 16 18 18 16 17 21 24 27 29 28 26 23 16 10 8 7 7 7 8 8 8 9 9 9 10 10 11 13 15 15 15 15 15 17 18 18 18 19 19 20 23 24 26 28 28 27
9 9 10 10 11 11 11 12 12 12 13 13 13 13 14 13 13 15 17 17 16 18 22 25 27 28 26 23 18 13 9 8 7 7 8 8 8 8 9 10 10 11 11 13 16 17 17 17 15 15 18 19 18 19 19 19 20 22 24 26 28 29 30
10 10 10 11 12 12 12 13 13 12 12 13 14 14 13 13 12 13 15 15 17 21 24 26 27 25 22 19 16 11 8 8 7 7 7 7 8 8 9 11 12 13 14 15 18 18 18 18 16 16 18 18 18 20 20 19 19 20 21 24 26 27 28
11 11 11 12 12 12 13 13 13 13 13 13 13 13 13 13 10 9 10 14 18 21 25 27 25 22 18 15 13 9 6 6 6 6 6 7 7 8 9 11 14 16 16 16 18 18 18 18 17 15 17 18 20 21 20 19 20 20 20 22 22 22 23
12 12 12 12 12 13 13 13 13 13 13 13 13 13 13 12 8 8 10 14 17 21 27 29 24 19 16 14 12 8 4 3 4 4 5 6 7 9 10 11 12 13 12 13 16 17 17 18 17 16 16 18 21 21 20 20 21 22 23 23 22 23 23
13 13 13 13 13 13 13 14 14 13 14 14 12 10 8 6 8 11 12 15 18 24 29 28 23 19 16 13 11 8 3 1 3 3 4 7 9 10 11 10 9 9 9 10 12 13 15 18 20 20 19 20 23 24 24 24 24 24 25 25 24 24 23
15 14 14 13 14 14 14 14 14 13 13 11 6 2 5 9 11 13 14 15 19 24 26 24 21 20 16 12 10 7 3 4 6 5 6 9 10 11 11 10 9 9 9 10 13 17 20 22 22 22 21 22 24 25 25 25 24 24 24 23 22 22 22
16 15 15 14 15 14 13 13 13 11 10 8 5 3 6 10 14 16 16 14 15 19 20 20 18 16 13 10 7 5 5 6 7 7 7 9 11 11 11 10 10 11 13 16 21 23 23 22 20 19 19 19 20 21 21 22 22 23 23 22 22 22 21
17 16 16 15 15 15 14 13 11 8 6 7 8 8 10 13 16 16 14 13 13 15 15 16 14 11 9 7 5 5 5 6 7 7 7 9 10 10 11 11 14 17 19 22 23 21 19 18 18 17 17 18 19 20 20 21 20 21 21 22 22 22 21

ECMWFFLT1_925_spd_024.txt.gz
Wind_Speed
14 14 11 9 9 8 7 6 7 8 8 8 8 8 8 8 8 8 7 9 10 9 8 9 11 12 12 12 10 11 11 9 8 7 7 7 5 4 2 2 2 3 3 3 3 3 2 0 2 4 5 5 5 7 7 7 6 5 7 7 7 7 6
15 14 12 10 9 8 7 6 8 8 7 8 8 8 9 8 8 8 7 8 11 12 12 10 9 9 10 10 10 11 11 9 8 7 7 8 7 5 3 2 3 6 6 5 4 4 3 2 2 3 4 3 3 6 8 6 5 5 6 8 8 9 9
16 15 13 12 10 9 8 7 7 7 7 8 8 8 8 9 8 8 8 8 10 11 11 10 9 9 9 9 10 10 10 9 10 9 10 9 7 5 5 4 3 1 3 4 3 1 3 3 2 3 4 4 3 5 6 6 5 5 6 8 8 8 9
17 16 16 14 11 10 9 8 7 7 7 7 7 7 8 8 8 8 8 8 8 9 10 10 9 9 9 9 9 10 10 10 10 11 11 11 8 6 8 10 10 9 7 6 7 7 6 3 3 4 6 9 9 9 7 5 4 4 6 8 10 10 9
18 17 17 15 13 11 10 9 9 8 8 7 7 7 7 7 7 8 8 7 8 8 9 8 9 9 8 9 9 10 10 10 10 10 10 10 9 9 9 9 9 9 9 9 9 9 9 8 6 4 7 11 10 11 13 9 6 8 10 10 9 9 9
18 16 17 16 14 12 11 10 10 10 9 9 8 7 7 6 6 7 6 6 6 7 7 8 8 9 8 9 10 10 10 10 10 11 10 10 10 9 9 8 8 9 9 8 7 7 6 7 8 5 7 10 8 10 14 12 12 12 13 11 7 6 8
18 16 16 15 14 13 12 11 10 10 10 10 9 8 7 7 6 6 5 5 5 5 6 7 8 8 8 9 9 9 10 10 9 10 10 10 9 8 9 8 8 8 8 7 7 7 6 7 8 8 8 9 9 10 11 12 13 10 7 7 5 3 2
18 16 15 15 14 13 12 11 10 10 10 10 10 9 8 8 7 6 6 5 5 5 5 6 6 7 8 8 8 8 8 8 8 8 9 9 9 8 8 8 8 8 7 7 7 7 7 7 7 8 7 6 6 7 7 10 13 11 12 10 6 6 10
18 16 14 14 15 12 11 12 10 8 10 10 10 10 9 9 8 7 7 6 6 5 5 6 5 5 7 7 7 8 7 7 8 7 7 7 8 7 8 9 8 6 5 5 6 5 5 6 5 5 6 5 4 4 4 7 8 9 15 15 11 12 15
18 17 14 13 15 13 10 11 10 8 8 10 11 11 9 9 9 8 8 7 6 6 5 6 5 5 6 6 6 7 6 6 6 6 6 6 6 5 6 7 6 4 5 5 3 3 4 4 4 3 4 4 4 3 3 4 5 7 12 14 12 12 15
17 17 15 12 14 15 10 10 10 9 8 8 10 11 9 10 10 9 9 9 8 7 7 6 6 6 6 6 6 6 6 6 6 6 6 5 5 5 4 5 5 4 5 5 3 3 4 4 4 4 4 3 3 3 2 3 4 6 11 14 15 15 17
14 14 13 11 12 14 12 9 10 10 9 8 10 11 10 11 11 11 11 10 10 9 9 9 8 7 7 7 7 6 6 6 6 5 5 5 4 4 4 4 5 4 4 5 4 3 4 5 4 5 6 5 4 4 3 4 3 5 11 15 16 16 17
13 11 10 8 7 9 9 8 8 8 10 9 9 10 11 12 13 13 12 12 12 12 11 11 11 9 9 8 8 8 7 7 7 6 5 5 5 4 3 3 2 2 3 5 4 3 4 4 3 4 4 3 4 4 5 6 5 8 13 15 15 16 15
11 10 10 9 7 6 7 6 7 7 9 11 11 11 11 12 14 14 14 14 14 14 13 13 13 12 11 11 10 10 9 9 9 8 7 6 6 5 4 3 2 1 1 3 3 3 4 5 5 6 5 3 4 4 5 7 7 9 13 14 14 16 16
9 9 10 10 9 9 8 6 8 9 9 11 12 13 13 13 14 15 15 16 16 16 15 16 16 14 14 14 13 12 12 12 11 11 10 9 7 7 6 4 4 3 2 1 2 2 4 5 5 7 6 5 6 7 6 9 10 10 13 15 16 17 16
11 11 12 11 9 9 10 9 8 10 12 11 10 12 13 14 16 16 17 17 17 17 17 17 17 17 16 16 15 15 15 13 13 13 12 10 10 9 8 6 5 5 4 2 1 2 3 4 4 5 6 7 8 9 8 9 10 11 13 15 16 16 16
12 13 15 14 12 12 14 14 12 12 12 13 13 12 13 14 15 17 19 19 18 18 18 18 18 18 18 17 17 17 16 15 14 14 13 11 11 10 9 8 7 6 6 4 2 2 2 2 3 4 6 7 8 9 9 8 9 11 13 15 15 16 17
10 11 14 15 14 14 15 15 15 15 15 14 14 14 16 18 18 19 20 21 21 20 19 19 18 18 17 17 17 17 16 16 15 15 14 12 12 11 10 9 8 7 6 5 3 3 2 2 3 4 5 7 8 10 11 11 12 13 14 16 18 18 18
4 6 8 10 12 14 16 17 18 20 19 17 15 17 22 23 22 20 20 20 22 22 21 20 19 19 17 16 17 17 15 15 16 15 14 13 13 12 11 9 8 8 7 6 5 4 3 3 3 4 5 7 8 10 11 12 12 13 15 17 18 18 19
3 3 4 4 6 10 12 15 18 21 22 21 20 23 26 25 22 22 22 22 22 22 21 20 18 19 19 18 18 18 17 16 16 16 15 14 13 12 12 10 9 9 8 6 6 5 5 4 4 5 6 7 8 9 10 11 12 13 15 17 18 18 19
4 3 3 4 5 7 10 12 14 17 20 22 24 26 26 25 23 21 21 22 22 21 21 21 19 17 17 18 20 20 19 18 17 16 15 14 13 12 12 11 9 9 8 8 9 9 7 6 7 8 8 7 7 8 10 11 11 13 14 16 17 18 18
4 3 3 4 5 7 9 11 12 15 18 21 24 25 25 24 23 20 19 22 24 23 23 23 21 19 19 20 22 21 20 19 18 16 15 14 13 12 12 10 10 10 10 11 12 11 9 9 9 9 9 8 8 8 9 10 11 12 14 15 16 17 17
1 2 2 2 3 4 6 9 12 14 16 19 20 21 22 22 22 21 21 23 25 27 26 24 23 23 23 24 24 22 20 19 17 16 15 14 13 12 11 10 11 12 13 13 13 12 12 10 8 8 9 8 8 9 9 10 11 12 13 14 15 16 16
1 1 2 2 2 3 4 5 7 9 11 13 14 15 17 18 19 20 21 23 25 27 27 26 25 24 24 25 26 23 20 19 17 16 15 14 13 13 12 11 11 13 14 14 13 13 11 9 9 10 9 7 8 9 10 12 13 14 14 15 15 16 16
2 2 2 2 3 4 4 4 6 7 8 9 10 11 13 15 16 17 18 19 21 23 25 25 25 23 21 23 26 24 20 18 17 16 15 14 13 13 12 12 11 11 12 12 12 10 9 10 12 11 9 9 9 11 12 14 16 17 17 16 16 16 17
3 2 2 3 4 4 5 6 7 7 8 9 9 10 11 13 14 16 16 16 17 18 21 23 24 23 21 22 25 23 19 17 17 16 14 13 13 12 11 12 11 9 9 9 10 10 10 12 12 10 8 9 10 12 14 16 18 20 21 21 21 19 18
3 3 3 4 5 6 7 8 8 8 8 9 10 11 12 13 14 15 16 16 15 16 18 19 21 23 24 24 26 23 18 16 16 15 13 13 13 12 10 10 9 8 8 9 10 10 10 9 9 7 7 8 10 13 15 17 19 20 22 24 26 26 24
3 3 4 5 6 7 7 8 9 9 9 10 12 13 13 14 15 16 16 16 16 16 16 16 18 22 25 26 27 23 16 14 15 14 12 13 13 12 10 9 9 9 10 11 11 12 11 11 11 11 11 12 14 16 16 17 19 20 20 22 25 27 27
3 4 5 6 6 7 8 8 9 9 10 11 12 13 14 14 15 15 15 15 15 15 14 14 17 21 24 26 26 22 17 14 15 14 11 11 11 10 9 9 10 11 12 12 12 13 13 14 15 15 15 16 17 18 18 18 18 18 20 21 22 24 25
5 6 6 7 7 8 8 8 9 10 11 12 13 13 14 15 15 15 14 13 14 14 13 15 18 20 23 25 25 21 18 16 15 12 10 9 9 9 9 10 11 11 11 11 12 13 14 16 18 18 18 18 18 18 19 19 19 19 19 20 22 23 24
7 7 7 8 9 9 9 10 11 11 12 14 14 14 14 14 15 14 12 10 11 13 14 16 19 21 23 24 22 18 15 14 12 9 8 7 8 9 10 11 11 12 12 13 14 15 16 17 16 15 15 16 17 19 20 20 20 19 18 19 19 20 21
8 9 9 10 10 10 10 11 12 13 14 15 15 14 14 14 13 10 9 8 9 12 14 17 20 21 22 22 19 15 11 10 9 8 8 8 8 8 8 9 9 11 13 15 15 15 15 14 14 13 13 15 17 19 20 19 19 19 20 22 23 24 25
10 11 11 11 11 11 11 12 13 14 14 14 15 15 13 10 6 4 4 6 8 9 12 17 20 21 20 19 17 14 10 8 7 7 6 6 5 5 5 8 10 10 11 13 13 12 12 12 13 14 16 17 19 20 21 22 23 24 26 27 28 28 28
12 12 12 12 12 11 12 13 14 15 15 15 14 11 6 3 5 6 5 6 7 8 13 19 21 20 19 18 16 14 11 8 6 5 4 3 3 4 5 9 10 8 8 9 9 9 12 14 16 19 20 20 20 20 21 23 23 23 24 24 24 23 22
13 13 13 13 13 13 13 14 15 15 15 13 7 3 4 6 7 7 6 7 8 12 17 22 22 21 19 17 14 11 8 6 3 3 3 4 6 7 8 10 10 6 6 9 11 13 17 19 20 20 19 17 17 18 18 19 21 21 20 20 20 19 19
15 15 15 15 15 15 14 14 15 15 14 9 4 6 6 7 9 9 9 9 11 16 21 23 22 20 18 14 10 7 6 4 4 5 6 8 8 8 8 9 9 7 9 13 16 18 18 17 15 14 13 14 15 16 17 19 21 20 19 18 18 19 18
16 16 16 16 16 15 14 15 15 13 10 6 5 7 7 8 9 10 12 12 15 19 22 21 18 16 14 12 8 6 5 4 4 4 5 6 6 7 8 10 11 13 16 18 18 16 14 12 11 11 12 14 16 17 18 20 20 19 18 18 18 19 18

ECMWFFLT1_925_spd_030.txt.gz
Wind_Speed
23 22 21 18 15 14 13 12 10 9 8 7 7 10 12 14 14 13 13 14 14 13 12 13 14 14 14 13 11 9 6 4 4 6 7 4 3 5 7 7 4 1 1 2 2 2 2 1 1 2 2 4 5 6 8 9 9 9 9 7 6 7 8
24 24 21 19 18 17 15 14 12 10 8 7 7 9 12 14 14 14 13 13 13 13 13 13 13 13 12 12 11 10 9 8 6 6 7 5 5 5 5 6 3 1 2 4 3 3 3 2 1 2 5 5 4 4 5 8 10 11 11 11 10 10 10
25 25 23 22 20 18 17 15 12 10 9 9 9 10 11 12 12 11 11 12 11 11 11 12 12 12 12 12 12 11 11 12 12 11 10 10 9 8 6 6 4 2 3 5 5 4 4 4 3 1 4 5 3 5 9 9 7 8 11 12 12 12 12
28 26 25 25 23 21 19 16 14 12 11 10 9 10 11 11 11 10 11 13 13 11 11 11 10 10 10 11 12 12 12 12 13 13 13 13 13 14 12 10 9 7 6 7 7 7 6 5 4 1 4 4 2 5 12 16 17 12 5 6 8 10 11
28 27 27 28 25 23 20 18 16 14 12 10 10 10 12 11 10 11 12 12 13 12 11 10 10 9 9 9 10 11 11 11 11 11 12 12 13 14 15 14 13 11 10 9 8 8 8 6 5 3 3 4 2 5 10 16 19 21 20 17 14 11 9
26 26 27 28 27 23 21 21 19 16 14 12 12 12 12 12 12 12 12 12 12 11 10 10 9 9 8 9 9 10 10 10 10 10 11 11 11 11 12 11 11 10 10 9 6 7 7 6 6 4 3 3 2 4 9 12 14 17 20 21 21 20 19
25 24 26 27 26 24 22 22 19 17 17 15 15 14 13 13 12 12 12 12 12 11 9 9 9 8 8 9 10 10 10 10 10 11 11 11 11 11 11 10 10 10 9 7 6 6 6 5 7 6 2 2 3 4 7 9 11 13 13 15 17 18 19
24 23 24 25 25 23 22 21 19 18 18 17 17 16 15 14 13 12 12 13 12 11 9 9 8 8 9 10 11 11 10 9 10 11 10 10 11 10 9 9 9 9 8 6 6 7 8 8 9 8 5 4 2 4 6 7 9 12 13 12 12 15 17
25 24 24 23 23 23 22 20 18 18 17 18 18 17 16 14 13 13 13 14 13 11 10 9 8 8 8 9 10 10 11 10 10 12 11 10 10 9 8 7 7 8 8 7 6 7 8 9 8 8 9 8 4 2 3 5 5 7 13 13 10 12 16
25 25 24 23 23 23 21 19 18 18 17 17 17 17 16 14 13 13 13 14 14 12 11 9 7 7 8 8 9 9 10 9 10 12 11 10 10 9 8 7 7 8 9 9 9 8 7 7 7 7 8 9 7 4 2 3 3 2 8 13 10 11 16
26 26 24 23 23 24 23 21 19 19 18 17 17 16 16 14 13 12 12 13 14 13 11 8 6 6 7 7 7 7 7 7 8 10 9 8 8 7 7 7 7 8 9 9 10 9 7 7 7 6 6 7 7 5 3 2 2 2 4 10 10 13 16
27 27 24 23 24 25 25 23 22 21 20 19 18 17 17 16 14 13 12 12 12 12 11 9 7 6 5 5 5 5 5 4 6 8 7 7 7 5 5 6 6 6 7 7 7 7 6 7 6 6 5 5 6 6 4 2 0 2 5 8 10 13 14
27 27 25 24 25 25 25 25 24 23 22 21 20 18 17 16 15 14 13 12 12 12 11 10 10 8 7 6 5 5 5 5 5 5 4 5 7 6 4 5 4 4 4 4 4 4 3 4 5 5 4 5 6 6 7 4 1 6 9 10 11 13 13
26 27 26 25 26 26 25 25 24 24 24 23 21 20 18 17 15 14 14 13 12 12 11 11 11 10 9 8 7 7 6 6 5 4 3 5 7 6 5 3 2 2 3 3 3 2 3 3 4 4 3 4 5 6 7 6 4 9 12 12 13 15 15
26 27 28 28 27 26 26 24 23 24 25 24 23 21 19 17 16 15 15 14 13 12 11 11 11 11 11 11 10 10 9 9 9 8 7 6 7 6 6 4 2 1 2 1 2 2 1 2 3 3 3 4 5 6 7 8 7 7 12 16 16 16 17
27 25 24 25 25 23 24 25 22 22 23 23 23 22 19 18 17 16 16 15 14 13 12 12 12 12 12 12 12 12 12 11 11 11 11 10 9 7 7 6 5 4 1 1 1 2 1 1 2 3 3 3 4 6 7 8 9 8 10 16 17 18 19
25 24 18 18 20 19 19 21 21 22 24 24 23 22 20 18 17 17 16 15 15 14 13 13 13 13 13 13 13 13 13 13 13 13 13 12 11 10 9 9 8 7 4 2 2 3 2 1 2 3 4 5 6 7 8 8 9 9 10 14 17 18 19
15 20 19 19 22 22 21 22 20 20 22 22 21 21 20 19 18 17 17 16 16 16 15 15 15 15 15 16 15 14 14 14 14 14 14 14 14 13 11 10 9 9 7 6 5 4 4 4 4 5 6 7 8 9 10 9 10 11 12 14 17 19 20
14 19 23 22 23 24 24 23 19 16 16 16 16 16 17 18 18 18 18 18 18 18 17 17 17 17 18 18 18 17 16 16 16 16 16 16 16 15 14 11 11 11 10 8 7 6 6 6 6 6 6 7 9 10 11 11 11 12 13 14 16 19 21
19 19 18 17 17 19 20 19 18 17 15 13 13 13 13 14 15 15 16 17 18 17 18 19 20 21 22 22 21 21 20 19 18 18 18 18 17 17 16 13 13 14 12 10 9 8 8 7 6 6 5 6 9 10 10 10 10 10 11 12 14 17 19
16 14 13 13 14 15 16 16 16 16 15 15 14 13 13 13 14 14 14 15 14 14 15 17 19 21 23 24 24 24 23 22 21 21 21 20 19 18 17 16 15 16 14 12 11 10 9 8 7 6 6 7 9 9 9 9 9 8 9 11 12 14 17
14 12 12 13 12 12 12 12 11 12 12 13 14 14 14 14 15 15 16 16 16 15 15 17 17 17 18 22 25 25 25 24 24 24 24 24 22 20 19 18 17 17 16 14 12 11 10 9 7 6 6 8 9 9 8 8 7 8 10 12 13 14 16
10 10 10 10 9 8 8 7 8 9 9 10 11 10 10 11 12 13 15 17 18 17 16 16 16 16 16 18 21 23 24 25 26 26 27 26 25 23 22 21 19 19 18 16 13 12 11 9 7 6 7 9 10 9 8 7 7 8 10 12 13 14 16
9 9 8 8 7 7 7 7 7 7 8 8 7 7 8 9 10 11 13 15 15 16 15 15 15 16 17 19 20 21 22 24 26 27 28 28 27 25 24 23 22 21 20 17 15 13 12 10 7 7 8 9 10 10 9 9 8 9 10 11 14 15 15
10 9 8 8 7 6 6 5 5 5 5 4 5 6 7 7 8 10 12 14 14 14 14 13 14 15 16 18 20 20 20 21 23 25 27 29 29 28 27 26 25 23 21 18 16 14 13 11 9 8 8 9 10 10 10 10 10 10 10 11 14 16 16
9 9 9 9 8 7 6 5 3 2 1 1 2 3 4 4 5 6 8 9 11 11 11 11 11 12 13 14 16 18 19 20 22 24 25 28 29 29 29 28 26 23 21 18 16 14 13 11 10 9 9 9 10 10 11 12 12 11 11 12 14 17 17
8 9 9 9 8 6 5 4 3 1 1 2 3 3 4 5 6 7 8 8 9 10 10 11 11 12 12 12 12 14 16 18 20 22 23 26 29 30 30 29 26 24 21 18 16 13 12 11 11 10 9 9 10 11 12 12 12 11 12 13 14 16 17
5 7 7 6 6 5 5 4 4 4 4 5 5 6 6 7 8 9 9 10 10 10 11 12 13 13 12 11 11 11 13 15 17 19 21 24 27 29 28 27 24 21 18 16 14 12 11 11 10 10 9 9 10 10 10 11 11 11 12 13 14 15 16
7 8 7 5 4 4 5 5 5 5 6 7 7 8 8 9 10 10 10 10 12 12 12 13 14 14 13 12 10 11 11 12 13 16 18 21 24 25 24 22 19 15 14 13 12 11 10 10 10 10 10 10 10 10 10 11 12 12 12 13 13 14 16
8 9 8 7 6 6 6 6 6 7 7 7 8 9 10 10 11 12 11 12 13 14 14 14 14 15 14 12 10 10 10 10 10 12 15 17 19 19 17 16 14 13 13 13 11 10 10 10 10 10 10 10 10 11 11 12 12 12 13 15 16 18 20
7 8 8 8 8 8 8 9 8 7 7 8 9 10 11 12 13 13 13 13 14 14 15 15 14 15 14 12 9 8 9 10 11 13 14 15 15 15 14 13 13 13 12 11 9 10 11 12 11 11 10 9 9 10 11 12 14 15 16 18 18 19 19
5 6 7 8 9 9 9 9 9 9 9 10 10 11 12 13 13 14 14 15 14 14 15 14 14 13 13 11 8 7 9 12 14 15 16 16 15 14 14 13 12 11 10 9 9 10 10 10 9 8 7 8 9 11 12 13 14 15 15 15 15 14 14
8 7 7 8 8 9 10 11 12 13 12 11 11 11 11 12 13 13 14 13 13 12 12 11 11 10 10 9 8 8 11 14 15 16 16 15 14 12 11 9 8 7 8 8 8 8 7 5 5 5 6 8 9 10 10 10 10 11 11 12 13 14 14
10 10 10 10 11 12 14 15 16 16 14 12 11 9 9 10 12 12 12 11 9 8 7 7 7 7 8 8 8 9 11 14 16 16 15 13 11 10 8 7 6 6 5 5 5 4 3 4 6 8 9 9 9 8 8 9 9 10 11 13 15 15 15
10 10 10 11 12 14 14 15 16 16 14 13 10 8 8 9 10 10 9 7 6 5 5 5 5 7 8 9 9 10 12 13 14 14 14 12 10 9 8 7 6 5 4 2 1 3 6 8 9 9 8 7 6 6 7 9 10 11 13 14 15 15 15
10 9 10 11 13 14 14 14 14 14 14 13 11 8 8 8 8 7 7 5 5 5 5 6 7 8 9 9 10 10 11 12 13 13 13 12 10 8 7 6 5 4 1 2 4 6 7 8 7 5 5 5 5 6 8 9 10 11 12 13 14 15 15
12 12 13 15 16 16 16 15 15 15 16 15 13 10 9 9 8 8 7 6 6 7 8 8 9 9 10 10 11 11 11 12 12 11 11 10 8 7 6 5 3 1 2 4 6 6 6 6 5 5 5 6 7 7 8 9 10 11 12 13 15 16 16

ECMWFFLT1_925_spd_033.txt.gz
Wind_Speed
15 15 15 13 12 11 11 10 9 8 7 7 8 8 9 9 9 9 10 10 10 11 10 9 9 9 8 8 6 4 3 3 4 5 8 9 8 7 7 6 5 5 4 3 2 1 3 2 2 4 5 5 5 6 4 5 7 8 9 9 7 6 8
15 16 15 12 11 10 10 10 9 9 9 9 9 11 11 11 10 10 10 10 9 8 7 6 7 8 8 8 7 6 6 6 5 3 5 5 4 4 7 8 5 6 6 5 4 3 4 3 1 2 3 7 11 14 10 4 1 3 6 8 7 8 9
17 17 15 12 12 11 11 11 9 9 10 10 10 11 11 11 10 10 9 9 9 7 6 5 6 7 7 8 9 9 10 10 10 8 6 5 3 3 6 7 7 7 6 6 6 6 5 5 3 0 2 4 8 14 18 17 13 10 8 5 4 4 5
20 18 16 15 14 12 12 11 9 9 10 11 11 10 9 9 8 7 7 8 9 8 7 6 6 7 7 8 9 10 11 11 11 10 10 9 7 6 6 6 6 6 4 4 5 5 4 4 4 1 2 3 5 9 16 21 22 20 18 17 16 14 10
22 19 19 17 15 14 13 12 10 10 11 12 12 11 10 8 6 6 8 10 10 9 8 7 7 7 8 9 9 10 11 11 11 10 10 11 11 10 9 7 6 5 5 5 4 3 4 5 5 3 2 3 4 5 9 14 19 21 21 21 22 22 19
22 19 19 18 16 14 13 12 12 11 12 12 13 13 11 9 7 7 9 11 11 10 9 8 8 8 8 9 9 10 10 10 9 9 9 10 10 11 11 10 9 9 9 8 5 4 4 4 5 4 3 4 3 4 6 9 12 15 18 21 21 21 21
22 19 19 18 16 15 13 13 12 12 12 13 14 14 12 10 9 9 10 10 11 11 11 10 9 8 8 8 9 9 10 9 9 9 9 9 9 9 9 9 9 9 9 8 6 6 6 5 5 4 3 4 4 4 5 7 9 11 12 15 19 19 18
22 19 18 17 16 15 14 13 13 12 12 12 13 14 13 12 10 10 10 10 11 11 11 11 10 9 8 9 9 9 9 9 8 9 9 9 9 9 9 9 9 9 9 8 8 9 9 9 10 8 4 4 3 4 4 5 10 13 11 10 15 19 18
23 20 19 17 17 15 14 14 13 12 12 12 13 13 13 12 11 11 10 10 10 11 11 10 10 10 9 9 9 9 10 8 8 9 9 9 9 9 8 8 9 10 10 9 9 10 11 11 12 12 10 7 4 1 3 4 5 9 13 12 13 18 18
25 22 19 17 17 17 15 15 13 13 13 13 13 13 12 12 11 11 11 10 10 10 10 9 9 9 9 9 9 9 9 9 8 9 8 8 8 8 8 8 9 11 11 10 10 10 10 11 11 12 13 12 8 4 2 3 3 4 11 15 14 16 18
27 23 19 17 19 19 17 16 15 13 13 13 13 13 12 11 11 11 12 11 10 9 9 8 8 8 8 9 10 10 10 9 8 9 7 7 8 7 8 9 9 11 11 10 10 10 10 10 10 11 12 12 13 9 5 3 2 3 8 13 15 16 17
28 25 20 16 20 22 19 17 16 14 14 14 14 14 12 11 10 12 13 12 11 10 9 8 8 8 8 9 9 10 10 9 8 8 7 6 6 6 7 9 8 9 10 9 9 8 8 9 9 9 10 10 12 11 8 5 2 4 8 11 14 14 15
31 28 23 18 22 24 21 19 18 16 15 14 14 14 13 11 11 12 13 14 13 12 11 10 9 8 8 8 8 9 9 9 8 8 7 6 6 5 6 7 6 6 6 6 6 6 6 7 7 7 8 9 10 10 9 8 4 2 5 9 12 14 16
30 30 25 20 22 24 23 21 20 19 18 16 15 14 13 12 12 12 13 14 14 14 12 11 10 9 9 8 8 8 8 8 8 7 7 6 6 5 4 5 5 5 4 3 3 4 5 6 6 6 7 7 9 9 9 9 7 4 4 8 11 13 16
27 28 25 21 22 25 24 23 22 22 21 19 17 15 14 15 14 13 13 13 14 14 13 12 11 10 10 9 8 8 8 8 8 7 7 7 7 6 5 4 4 4 3 2 2 2 3 4 4 5 6 6 7 9 10 10 10 7 7 10 12 14 17
25 26 25 22 23 25 25 25 24 24 23 21 19 17 16 16 16 15 15 14 13 13 13 13 12 12 11 10 9 9 8 8 8 7 7 7 8 7 6 5 4 3 3 2 2 2 2 2 2 3 4 5 6 8 9 10 10 9 10 12 14 16 18
20 21 22 22 21 20 19 19 21 23 22 20 20 20 19 19 19 18 18 17 15 14 14 14 14 13 12 12 11 10 10 9 9 9 8 8 8 7 7 6 5 4 3 2 2 2 1 2 1 2 3 4 6 8 9 9 10 9 9 11 13 15 17
15 14 16 17 18 15 13 15 18 20 20 19 21 23 23 23 22 22 22 20 18 16 15 15 14 14 13 13 12 12 12 11 11 11 10 10 10 9 8 7 6 6 5 4 4 3 3 2 1 1 2 3 5 7 8 8 9 9 9 11 12 14 16
17 16 15 16 18 17 16 19 22 21 21 21 22 24 24 24 24 25 26 24 22 19 17 16 15 15 14 14 14 14 14 14 13 13 13 12 12 12 11 10 9 9 9 8 7 6 6 5 3 2 2 3 4 6 8 8 9 9 10 11 12 14 17
18 20 20 21 21 18 18 20 19 17 18 20 21 23 23 23 25 27 29 29 27 23 19 18 17 17 17 17 17 17 17 17 16 16 16 15 15 15 14 13 12 12 12 11 10 9 7 6 5 4 3 3 4 6 8 8 8 9 9 10 12 15 17
20 22 24 23 20 18 18 19 16 13 14 16 17 18 18 18 21 23 25 29 30 26 22 20 19 18 19 20 21 21 21 20 20 20 19 18 18 18 17 16 16 15 15 14 13 11 9 8 7 5 4 4 4 5 6 6 7 7 8 10 12 15 17
21 23 23 21 20 20 20 19 17 17 18 18 18 18 18 17 17 18 21 25 25 22 18 17 16 17 18 20 22 23 23 23 23 23 24 22 21 21 20 19 18 18 17 17 15 14 11 9 8 7 6 5 5 4 3 4 4 5 6 8 11 14 17
17 19 19 18 17 20 21 20 19 21 22 21 19 19 19 19 19 21 22 21 19 16 14 15 15 15 16 17 18 19 20 21 22 24 26 26 25 24 23 23 22 21 20 19 17 15 13 11 10 8 7 6 6 5 3 1 2 3 4 6 8 11 14
13 14 15 14 15 18 19 15 13 15 17 18 18 19 20 20 21 20 17 13 11 11 12 12 12 13 13 14 15 16 17 19 20 22 26 28 27 27 26 26 25 23 22 21 19 17 15 14 11 9 7 6 6 6 5 3 2 2 3 5 6 8 10
11 11 11 11 13 15 14 10 10 12 14 15 15 15 14 12 10 7 4 4 5 6 7 8 8 9 11 11 13 15 16 18 19 20 23 25 27 27 27 27 27 25 24 23 21 19 17 14 11 8 7 7 6 7 6 5 3 2 3 4 6 9 9
9 9 9 8 9 9 9 9 10 11 10 10 9 6 5 3 1 1 2 3 3 4 4 5 6 7 7 8 10 12 13 15 16 17 19 20 22 24 26 27 27 26 25 23 22 20 17 14 11 9 8 7 7 6 6 7 6 5 5 6 7 9 10
7 7 7 7 8 8 8 8 8 8 7 6 4 3 2 1 2 2 3 4 4 5 5 5 6 6 7 8 8 9 10 11 12 14 15 17 18 21 23 25 26 26 25 24 22 20 17 13 11 10 9 8 7 7 8 9 9 8 8 8 10 10 11
6 7 8 8 8 7 7 6 5 5 4 3 2 1 2 2 3 4 5 6 6 7 7 7 8 8 8 9 9 9 9 9 10 11 13 15 16 18 20 22 24 25 25 24 22 19 16 13 12 11 10 9 9 9 9 10 10 10 10 10 11 11 12
6 7 8 8 6 5 4 4 3 2 1 1 1 2 3 5 6 7 8 9 10 10 10 10 11 10 10 10 10 10 9 9 10 10 12 14 15 16 18 19 21 22 23 23 21 18 14 13 12 11 11 10 10 10 10 9 10 10 10 11 11 12 13
6 7 8 9 7 5 4 4 4 4 4 3 4 4 6 7 8 9 10 11 12 13 13 13 13 13 12 12 12 11 10 9 9 10 11 12 12 13 14 16 18 20 21 20 17 15 13 13 12 11 11 10 9 9 9 9 9 10 11 12 12 13 14
5 7 10 11 9 7 6 5 6 6 6 6 6 6 8 8 9 10 12 13 14 15 15 15 14 14 13 13 12 11 10 9 8 8 8 9 9 9 10 11 13 15 16 15 13 13 13 12 12 11 11 10 9 9 8 9 10 11 12 12 12 12 13
3 5 8 10 9 8 8 7 7 7 7 7 7 7 8 8 8 10 11 14 16 17 16 15 15 14 12 11 9 8 9 8 7 6 7 7 8 9 10 11 11 11 11 12 12 12 11 10 9 9 9 8 8 8 10 11 12 12 12 12 12 12 12
4 4 5 6 7 7 8 7 7 7 7 8 8 8 8 8 8 9 10 13 16 16 15 14 13 12 10 8 6 6 8 8 8 9 9 10 11 12 12 11 10 10 10 11 10 9 7 6 6 6 6 7 7 9 10 11 11 12 12 12 12 13 13
8 7 7 6 6 6 6 6 6 7 8 8 8 8 7 8 8 8 9 11 13 13 13 12 10 9 8 6 4 4 7 9 10 11 12 13 12 12 12 11 10 9 9 8 7 5 4 3 3 4 5 7 7 8 8 9 9 10 11 12 12 13 13
11 10 9 7 6 5 5 4 5 5 6 7 8 8 8 8 7 8 8 9 10 10 10 9 8 7 6 5 4 4 7 9 11 13 13 14 13 11 11 10 9 8 7 6 4 3 3 3 4 5 5 5 5 6 7 7 9 10 11 12 13 13 14
12 12 10 9 8 7 6 5 5 6 6 7 7 8 8 8 9 9 8 8 8 8 8 7 6 6 6 5 4 5 6 9 12 13 12 12 12 11 10 9 8 6 5 3 2 3 3 4 4 4 4 4 5 6 7 8 10 11 12 13 14 16 17
11 11 11 10 10 10 9 8 7 7 8 8 9 10 10 11 11 11 9 8 7 8 8 7 6 6 5 5 5 6 7 9 10 10 10 10 11 10 9 8 6 4 3 2 3 3 3 2 2 2 3 4 5 6 7 9 10 12 13 15 16 18 18